Location: Clairmont
(55.2667°N, 118.8000°W)
Time: 15:14:34
(UTC+00:00)

Envisat - Pass Details

Date: 05 November 2020
Orbit: 764 x 766 km, 98.1° (Epoch: 03 December)

Event Time Altitude Azimuth Distance (km) Brightness Sun altitude
Rises 01:01:36 0° 172° (S) 3,224 6.4 -7.7°
Reaches altitude 10° 01:03:55 10° 176° (S) 2,302 5.6 -8.1°
Maximum altitude 01:08:57 64° 258° (WSW) 849 3.6 -8.7°
Drops below altitude 10° 01:14:02 10° 340° (NNW) 2,318 5.6 -9.4°
Sets 01:16:23 0° 344° (NNW) 3,248 6.3 -9.8°
